User: anonymous   Login
Location: Castelbiague
(43.0361°N, 0.9246°E)
Time: 05:45:15
(UTC+00:00)
Language:

Terra - Orbit

View from above orbital plane
View from above orbital plane
View from above satellite
View from above satellite

Ground track
Ground track

The orbit data is extracted from the following two-line orbital elements,

1 25994U 99068A   21267.81172983  .00000094  00000-0  30845-4 0  9995
2 25994  98.1686 340.3797 0001388  92.3405  45.0692 14.57130783157935
Epoch (UTC): 24 September 2021 19:28:53
Eccentricity: 0.0001388
inclination: 98.1686°
perigee height: 701 km
apogee height: 703 km
right ascension of ascending node: 340.3797°
argument of perigee: 92.3405°
revolutions per day: 14.57130783
mean anomaly at epoch: 45.0692°
orbit number at epoch: 15793

The dashed part of the orbit path shows where the satellite is in the earth's shadow,  

DLR